Location: Brabourne
(51.1333°N, 1.0000°E)
Time: 15:11:10
(UTC+00:00)

SeaSat 1 - Pass Details

Date: 31 October 2021
Orbit: 743 x 747 km, 108.0° (Epoch: 30 November)

Event Time Altitude Azimuth Distance (km) Brightness Sun altitude
Exits shadow 19:26:12 10° 12° (NNE) 2,259 4.9 -27.8°
Drops below altitude 10° 19:26:22 10° 10° (N) 2,273 4.9 -27.8°
Sets 19:30:39 0° 334° (NNW) 3,205 6.2 -28.4°
